• In Sweden
  • List of Countries
  • For 7 days
  • Water Temperature
  • Satellite Maps
  • Weather Map
  • Weather Widgets
  • user-avatar
    Login

    Hourly Weather Aylesbury

    Today, 17 October, Tuesday

    Time Temperature Precipitation Wind Pressure Humidity
    00:00 +11°C° 0 mm 8 mps 755 mmHg 67%
    01:00 +11°C° 0 mm 7 mps 755 mmHg 69%
    02:00 +10°C° 0 mm 7 mps 755 mmHg 70%
    03:00 +10°C° 0 mm 6 mps 755 mmHg 72%
    04:00 +10°C° 0 mm 6 mps 755 mmHg 73%
    05:00 +10°C° 0 mm 5 mps 755 mmHg 75%
    06:00 +9°C° 0 mm 5 mps 755 mmHg 77%
    07:00 +10°C° 0 mm 5 mps 756 mmHg 75%
    08:00 +12°C° 0 mm 5 mps 756 mmHg 72%
    09:00 +13°C° 0 mm 5 mps 757 mmHg 70%
    10:00 +14°C° 0 mm 5 mps 757 mmHg 66%
    11:00 +14°C° 0 mm 5 mps 757 mmHg 63%
    12:00 +15°C° 0 mm 4 mps 757 mmHg 60%
    13:00 +15°C° 0.1 mm 4 mps 756 mmHg 62%
    14:00 +15°C° 0.1 mm 4 mps 756 mmHg 65%
    15:00 +14°C° 0.1 mm 3 mps 756 mmHg 67%
    16:00 +15°C° 0.2 mm 2 mps 755 mmHg 72%
    17:00 +14°C° 0.2 mm 2 mps 755 mmHg 77%
    18:00 +13°C° 0.2 mm 1 mps 755 mmHg 83%
    19:00 +13°C° 0.2 mm 1 mps 755 mmHg 84%
    20:00 +13°C° 0.2 mm 1 mps 755 mmHg 84%
    21:00 +13°C° 0.2 mm 1 mps 755 mmHg 85%
    22:00 +13°C° 0.6 mm 1 mps 754 mmHg 86%
    23:00 +12°C° 0.6 mm 2 mps 754 mmHg 86%

    Tomorrow, 18 October, Wednesday

    Time Temperature Precipitation Wind Pressure Humidity
    00:00 +12°C° 0.6 mm 2 mps 753 mmHg 87%
    01:00 +12°C° 0.7 mm 2 mps 753 mmHg 88%
    02:00 +11°C° 0.7 mm 3 mps 752 mmHg 88%
    03:00 +11°C° 0.7 mm 3 mps 752 mmHg 89%
    04:00 +11°C° 0.3 mm 3 mps 752 mmHg 89%
    05:00 +11°C° 0.3 mm 3 mps 751 mmHg 90%
    06:00 +11°C° 0.3 mm 3 mps 751 mmHg 91%
    07:00 +12°C° 0.1 mm 3 mps 751 mmHg 91%
    08:00 +12°C° 0.1 mm 3 mps 751 mmHg 91%
    09:00 +12°C° 0.1 mm 3 mps 751 mmHg 90%
    10:00 +13°C° 0 mm 3 mps 751 mmHg 88%
    11:00 +15°C° 0 mm 2 mps 750 mmHg 86%
    12:00 +16°C° 0 mm 2 mps 750 mmHg 84%
    13:00 +17°C° 0 mm 2 mps 750 mmHg 84%
    14:00 +18°C° 0 mm 1 mps 750 mmHg 84%
    15:00 +18°C° 0 mm 1 mps 749 mmHg 85%
    16:00 +18°C° 0 mm 1 mps 749 mmHg 87%
    17:00 +16°C° 0 mm 1 mps 749 mmHg 89%
    18:00 +15°C° 0 mm 1 mps 749 mmHg 92%
    19:00 +15°C° 0.5 mm 1 mps 749 mmHg 93%
    20:00 +15°C° 0.5 mm 2 mps 749 mmHg 94%
    21:00 +15°C° 0.5 mm 2 mps 749 mmHg 95%
    22:00 +15°C° 0.7 mm 2 mps 748 mmHg 95%
    23:00 +15°C° 0.7 mm 2 mps 748 mmHg 95%

    Day after tomorrow, 19 October, Thursday

    Time Temperature Precipitation Wind Pressure Humidity
    00:00 +15°C° 0.7 mm 2 mps 747 mmHg 95%
    01:00 +14°C° 0 mm 2 mps 747 mmHg 95%
    02:00 +13°C° 0 mm 3 mps 747 mmHg 95%
    03:00 +12°C° 0 mm 3 mps 747 mmHg 95%
    04:00 +12°C° 0 mm 3 mps 747 mmHg 95%
    05:00 +13°C° 0 mm 2 mps 746 mmHg 95%
    06:00 +12°C° 0 mm 2 mps 746 mmHg 95%
    07:00 +12°C° 0 mm 3 mps 746 mmHg 92%
    08:00 +13°C° 0 mm 4 mps 746 mmHg 89%
    09:00 +14°C° 0 mm 5 mps 746 mmHg 87%
    10:00 +14°C° 0 mm 5 mps 746 mmHg 84%
    11:00 +15°C° 0 mm 6 mps 745 mmHg 80%
    12:00 +15°C° 0 mm 6 mps 745 mmHg 77%
    13:00 +15°C° 0 mm 6 mps 745 mmHg 78%
    14:00 +15°C° 0 mm 6 mps 744 mmHg 78%
    15:00 +15°C° 0 mm 6 mps 743 mmHg 79%
    16:00 +15°C° 0.7 mm 7 mps 743 mmHg 80%
    17:00 +13°C° 0.7 mm 8 mps 742 mmHg 82%
    18:00 +13°C° 0.7 mm 8 mps 741 mmHg 84%
    19:00 +13°C° 0.7 mm 9 mps 741 mmHg 84%
    20:00 +13°C° 0.7 mm 9 mps 740 mmHg 84%
    21:00 +14°C° 0.7 mm 10 mps 739 mmHg 83%
    22:00 +13°C° 0.3 mm 10 mps 739 mmHg 83%
    23:00 +13°C° 0.3 mm 10 mps 739 mmHg 83%

    20 October, Friday

    Time Temperature Precipitation Wind Pressure Humidity
    00:00 +13°C° 0.3 mm 10 mps 739 mmHg 83%
    01:00 +12°C° 0.1 mm 10 mps 741 mmHg 82%
    02:00 +11°C° 0.1 mm 9 mps 742 mmHg 81%
    03:00 +10°C° 0.1 mm 9 mps 743 mmHg 80%
    04:00 +10°C° 0 mm 8 mps 744 mmHg 80%
    05:00 +9°C° 0 mm 7 mps 746 mmHg 80%
    06:00 +8°C° 0 mm 6 mps 747 mmHg 81%
    07:00 +9°C° 0 mm 5 mps 748 mmHg 79%
    08:00 +9°C° 0 mm 5 mps 749 mmHg 77%
    09:00 +10°C° 0 mm 4 mps 749 mmHg 75%
    10:00 +11°C° 0 mm 4 mps 749 mmHg 70%
    11:00 +12°C° 0 mm 4 mps 749 mmHg 66%
    12:00 +13°C° 0 mm 3 mps 749 mmHg 61%
    13:00 +13°C° 0 mm 3 mps 749 mmHg 63%
    14:00 +13°C° 0 mm 4 mps 748 mmHg 64%
    15:00 +13°C° 0 mm 4 mps 748 mmHg 66%
    16:00 +13°C° 1.1 mm 5 mps 747 mmHg 73%
    17:00 +13°C° 1.1 mm 6 mps 746 mmHg 81%
    18:00 +12°C° 1.1 mm 7 mps 745 mmHg 89%
    19:00 +13°C° 2.1 mm 8 mps 744 mmHg 89%
    20:00 +15°C° 2.1 mm 9 mps 743 mmHg 89%
    21:00 +16°C° 2.1 mm 9 mps 743 mmHg 88%
    22:00 +16°C° 0.7 mm 9 mps 742 mmHg 87%
    23:00 +15°C° 0.7 mm 8 mps 742 mmHg 86%

    21 October, Saturday

    Time Temperature Precipitation Wind Pressure Humidity
    00:00 +13°C° 0.7 mm 8 mps 742 mmHg 85%
    01:00 +13°C° 0.1 mm 8 mps 742 mmHg 83%
    02:00 +12°C° 0.1 mm 8 mps 742 mmHg 80%
    03:00 +11°C° 0.1 mm 8 mps 742 mmHg 78%
    04:00 +11°C° 0 mm 9 mps 741 mmHg 76%
    05:00 +11°C° 0 mm 10 mps 741 mmHg 73%
    06:00 +9°C° 0 mm 10 mps 741 mmHg 70%
    07:00 +11°C° 0 mm 11 mps 740 mmHg 68%
    08:00 +10°C° 0 mm 13 mps 740 mmHg 65%
    09:00 +12°C° 0 mm 14 mps 740 mmHg 62%
    10:00 +12°C° 0 mm 14 mps 740 mmHg 62%
    11:00 +12°C° 0 mm 14 mps 740 mmHg 62%
    12:00 +11°C° 0 mm 15 mps 740 mmHg 62%
    13:00 +12°C° 0.1 mm 14 mps 740 mmHg 62%
    14:00 +12°C° 0.1 mm 13 mps 741 mmHg 63%
    15:00 +12°C° 0.1 mm 13 mps 741 mmHg 63%
    16:00 +10°C° 0 mm 12 mps 741 mmHg 64%
    17:00 +9°C° 0 mm 11 mps 742 mmHg 65%
    18:00 +9°C° 0 mm 10 mps 742 mmHg 67%
    19:00 +8°C° 0 mm 10 mps 743 mmHg 67%
    20:00 +8°C° 0 mm 10 mps 744 mmHg 67%
    21:00 +8°C° 0 mm 10 mps 744 mmHg 66%
    22:00 +8°C° 0 mm 9 mps 745 mmHg 67%
    23:00 +7°C° 0 mm 9 mps 745 mmHg 67%

    22 October, Sunday

    Time Temperature Precipitation Wind Pressure Humidity
    00:00 +7°C° 0 mm 9 mps 745 mmHg 68%
    01:00 +7°C° 0 mm 9 mps 746 mmHg 68%
    02:00 +7°C° 0 mm 8 mps 746 mmHg 69%
    03:00 +6°C° 0 mm 8 mps 746 mmHg 69%
    04:00 +6°C° 0 mm 8 mps 746 mmHg 69%
    05:00 +6°C° 0 mm 8 mps 746 mmHg 69%
    06:00 +6°C° 0 mm 8 mps 747 mmHg 69%
    07:00 +7°C° 0 mm 9 mps 747 mmHg 67%
    08:00 +7°C° 0 mm 9 mps 747 mmHg 66%
    09:00 +8°C° 0 mm 10 mps 748 mmHg 64%
    10:00 +8°C° 0.1 mm 10 mps 748 mmHg 62%
    11:00 +9°C° 0.1 mm 10 mps 749 mmHg 61%
    12:00 +11°C° 0.1 mm 11 mps 749 mmHg 60%
    13:00 +11°C° 0 mm 10 mps 750 mmHg 60%
    14:00 +11°C° 0 mm 9 mps 750 mmHg 60%
    15:00 +11°C° 0 mm 9 mps 750 mmHg 61%
    16:00 +10°C° 0 mm 8 mps 751 mmHg 66%
    17:00 +10°C° 0 mm 7 mps 751 mmHg 71%
    18:00 +9°C° 0 mm 6 mps 752 mmHg 77%
    19:00 +9°C° 0 mm 6 mps 752 mmHg 79%
    20:00 +9°C° 0 mm 6 mps 752 mmHg 81%
    21:00 +9°C° 0 mm 6 mps 753 mmHg 83%
    22:00 +9°C° 0 mm 6 mps 753 mmHg 83%
    23:00 +10°C° 0 mm 6 mps 753 mmHg 83%
    Show more